Preview of NWS' New Version of Forecast
This preview is not operational and should not be used for support decisions.

Regional Weather Roundup (RWR)

Issued by National Weather Service (NWS)

                            
000
ASUS45 KABQ 181310
RWRNM 
NEW MEXICO REGIONAL WEATHER ROUNDUP
NATIONAL WEATHER SERVICE ALBUQUERQUE NM
700 AM MDT TUE JUN 18 2019

NOTE: "FAIR" MEANS FEW OR NO CLOUDS BELOW 12,000 FEET AGL WITH NO
       SIGNIFICANT WEATHER OR OBSTRUCTIONS TO VISION.

      THIS PRODUCT IS RELEASED AS TWO VERSIONS.  ONE VERSION NEAR
      THE TOP OF THE HOUR CONTAINING PRELIMINARY DATA FROM ALBUQUERQUE
      AND OTHER STATIONS.  A FINAL VERSION WITH ADDITIONAL DATA IS 
      ISSUED ABOUT 10 MINUTES AFTER THE HOUR.
 
NMZ501-503-504-510>518-181400-
NORTHWEST PLATEAU/NORTHCENTRAL MOUNTAINS
  
CITY           SKY/WX    TMP DP  RH WIND       PRES   REMARKS
FARMINGTON     FAIR      55  45  68 E7        30.14R                  
LOS ALAMOS       N/A     53  44  72 CALM      30.25R                  
SANTA FE       FAIR      49  46  90 N5        30.19R                  
TAOS           FAIR      46  43  89 CALM      30.24S                  
ANGEL FIRE       N/A     38  37  95 CALM      30.30R                  

$$
NMZ402-403-502-505>509-181400-
WESTCENTRAL MOUNTAINS/SOUTHWEST MOUNTAINS
  
CITY           SKY/WX    TMP DP  RH WIND       PRES   REMARKS
GALLUP         FAIR      46  37  71 CALM      30.20R                  
GRANTS         FAIR      44  43  97 NW7       30.24R                  
SILVER CITY    FAIR      61  27  27 N6        30.13R                  

$$
NMZ407-409-411-412-181400-
SOUTHERN DESERTS
  
CITY           SKY/WX    TMP DP  RH WIND       PRES   REMARKS
DEMING         FAIR      61  31  32 W6        30.07R                  
LAS CRUCES     FAIR      64  43  46 SW6       30.08R                  
HOLLOMAN AFB   FAIR      62  41  45 CALM      30.06R                  
ALAMOGORDO     FAIR      63  41  45 SE6       30.05S                  
T OR C         FAIR      66  36  32 NW7       30.09R                  

$$
NMZ519>523-181400-
CENTRAL VALLEYS/CENTRAL HIGHLANDS
  
CITY           SKY/WX    TMP DP  RH WIND       PRES   REMARKS
ALBUQUERQUE    FAIR      57  47  69 CALM      30.15R                  
DOUBLE EAGLE   MOSUNNY   50  45  81 N5        30.17R                  
MORIARTY ARPT  FAIR      45  44  96 CALM      30.20S                  
CLINES CORNERS FAIR      53  48  83 W8        30.21S                  
BELEN          FAIR      56  44  64 CALM      30.14S                  
SOCORRO        FAIR      60  44  55 N8        30.11R                  

$$
NMZ524>526-539-540-181400-
SOUTHCENTRAL MOUNTAINS
  
CITY           SKY/WX    TMP DP  RH WIND       PRES   REMARKS
RUIDOSO        FAIR      54  46  76 CALM      30.24R                  

$$
NMZ527>531-181400-
NORTHEAST HIGHLANDS/NORTHEAST PLAINS
  
CITY           SKY/WX    TMP DP  RH WIND       PRES   REMARKS
LAS VEGAS      FAIR      52  48  86 S9        30.19F                  
RATON          NOT AVBL                                               
CLAYTON          N/A    N/A N/A N/A MISG        N/A                   

$$
NMZ532>537-181400-
EASTCENTRAL PLAINS
  
CITY           SKY/WX    TMP DP  RH WIND       PRES   REMARKS
SANTA ROSA     PTSUNNY   57  54  87 W3        30.10S                  
TUCUMCARI      FAIR      61  55  81 NW6       30.04R                  
CANNON AFB     FAIR      62  56  81 W9        30.09R                  
CLOVIS AIRPORT FAIR      62  56  80 W12       30.07R                  

$$
NMZ028-029-538-181400-
SOUTHEAST PLAINS
  
CITY           SKY/WX    TMP DP  RH WIND       PRES   REMARKS
ROSWELL        FAIR      68  55  63 SW3       30.06R                  
ARTESIA        PTSUNNY   66  63  88 CALM      30.07S                  
CARLSBAD       FAIR      69  56  62 CALM      30.03F                  
HOBBS          SUNNY     64  55  72 SE3       30.06R                  


$$